Location: Kędzierzyn-Koźle
(50.3448°N, 18.2086°E)
Time: 04:58:32
(UTC+01:00)

ISS - Visible Passes

Search period start: 24 November 2017 00:00
Search period end: 04 December 2017 00:00
Orbit: 402 x 407 km, 51.6° (Epoch: 24 November)

Date Brightness Start Highest point End Pass type
(mag) Time Alt. Az. Time Alt. Az. Time Alt. Az.
28 Nov -1.5 18:16:42 10° SSW 18:17:50 18° SSW 18:17:50 18° SSW visible
29 Nov -2.0 17:25:04 10° S 17:27:22 18° SE 17:27:45 18° SE visible
29 Nov -0.5 19:00:10 10° WSW 19:00:25 12° WSW 19:00:25 12° WSW visible
30 Nov -1.4 16:34:12 10° SSE 16:35:15 11° SE 16:36:18 10° ESE visible
30 Nov -2.6 18:07:55 10° SW 18:10:15 37° SSW 18:10:15 37° SSW visible
01 Dec -2.7 17:15:50 10° SSW 17:18:49 32° SSE 17:20:01 24° ESE visible
01 Dec -0.8 18:51:49 10° W 18:52:40 17° W 18:52:40 17° W visible
02 Dec -2.0 16:24:01 10° SSW 16:26:34 21° SE 16:29:08 10° E visible
02 Dec -3.6 17:59:25 10° WSW 18:02:23 68° SW 18:02:23 68° SW visible
03 Dec -3.5 17:07:05 10° SW 17:10:18 55° SSE 17:12:04 24° E visible
03 Dec -1.1 18:43:30 10° W 18:44:42 20° W 18:44:42 20° W visible
